Tracking 25656 objects as of 21-May-2022
HD Live streaming from Space Station
objects crossing your sky now

SL-8 R/B

Track SL-8 R/B now!
10-day predictions


NORAD ID: 20557
Int'l Code: 1990-029J
Perigee: 1,465.2 km
Apogee: 1,706.2 km
Inclination: 74.0 °
Period: 117.7 minutes
Semi major axis: 7956 km
RCS: 6.465 m2 (large)
Launch date: April 6, 1990
Source: Commonwealth of Independent States (former USSR) (CIS)
Launch site: PLESETSK MISSILE AND SPACE COMPLEX (PKMTR)

Note: This is a ROCKET BODY
aabbcc
Your satellite tracking list
Your tracking list is empty




NASA's NSSDC Master Catalog

Two Line Element Set (TLE):
1 20557U 90029J   22140.77786780  .00000087  00000-0  90040-3 0  9999
2 20557  73.9821 147.2690 0151504 122.2954  49.3824 12.23217323434389
Source of the keplerian elements: AFSPC